Location: Castle
(40.7167°S, 175.9500°E)
Time: 03:34:25
(UTC+00:00)

Cosmos 2098 Rocket - Pass Details

Date: 04 August 2024
Orbit: 357 x 1001 km, 82.9° (Epoch: 07 September)

Event Time Altitude Azimuth Distance (km) Brightness Sun altitude
Rises 18:06:22 0° 191° (S) 3,708 6.8 -13.9°
Reaches altitude 10° 18:08:55 10° 194° (SSW) 2,792 6.2 -13.4°
Maximum altitude 18:15:24 63° 272° (W) 1,131 4.1 -12.2°
Drops below altitude 10° 18:21:44 10° 352° (N) 2,732 6.4 -11.1°
Sets 18:24:12 0° 355° (N) 3,623 7.1 -10.6°
